TUZ YROM-YCFS

Flight info

Callsign TUZ
Flight time 1h 33m
Altitude 15000
Route DCT ROM DCT PANPU DCT APAGI DCT
Aircraft BE60/L-V/N

Departure

Time 2026-05-05 09:13
Airport Roma Airport (YROM)

Arrival

Time 2026-05-05 10:47
Airport Coffs Harbour Airport (YCFS)
Time Latitude Longitude Altitude Speed Heading
2026-05-05 08:58 -26.54224 148.77901 997 ft 0 kts 103°
2026-05-05 09:09 -26.54225 148.77911 997 ft 3 kts 96°
2026-05-05 09:09 -26.54180 148.77906 996 ft 10 kts 274°
2026-05-05 09:09 -26.54178 148.77831 996 ft 9 kts 277°
2026-05-05 09:09 -26.54166 148.77764 996 ft 9 kts 283°
2026-05-05 09:10 -26.54154 148.77699 993 ft 9 kts 280°
2026-05-05 09:10 -26.54139 148.77634 996 ft 10 kts 309°
2026-05-05 09:10 -26.54058 148.77639 996 ft 15 kts 15°
2026-05-05 09:10 -26.53933 148.77672 994 ft 21 kts 12°
2026-05-05 09:11 -26.53816 148.77695 992 ft 11 kts
2026-05-05 09:11 -26.53784 148.77706 990 ft 2 kts 195°
2026-05-05 09:11 -26.53786 148.77705 990 ft 0 kts 194°
2026-05-05 09:12 -26.53787 148.77705 990 ft 0 kts 194°
2026-05-05 09:13 -26.53952 148.77667 994 ft 59 kts 191°
2026-05-05 09:13 -26.54541 148.77530 1016 ft 107 kts 192°
2026-05-05 09:13 -26.55308 148.77344 1348 ft 113 kts 185°
2026-05-05 09:13 -26.56056 148.77638 1714 ft 121 kts 134°
2026-05-05 09:14 -26.56408 148.78483 2124 ft 122 kts 110°
2026-05-05 09:14 -26.56540 148.79430 2480 ft 125 kts 101°
2026-05-05 09:14 -26.56672 148.80423 2725 ft 132 kts 103°
2026-05-05 09:14 -26.56899 148.81439 3011 ft 138 kts 117°
2026-05-05 09:15 -26.57385 148.82402 3264 ft 143 kts 125°
2026-05-05 09:15 -26.57986 148.83313 3558 ft 146 kts 128°
2026-05-05 09:15 -26.58645 148.84212 3804 ft 152 kts 127°
2026-05-05 09:15 -26.59267 148.85185 4060 ft 156 kts 124°
2026-05-05 09:16 -26.59887 148.86195 4317 ft 159 kts 124°
2026-05-05 09:16 -26.60516 148.87216 4584 ft 161 kts 124°
2026-05-05 09:16 -26.61153 148.88248 4855 ft 162 kts 124°
2026-05-05 09:16 -26.61800 148.89301 5124 ft 163 kts 124°
2026-05-05 09:17 -26.62442 148.90342 5391 ft 163 kts 124°
2026-05-05 09:17 -26.63079 148.91378 5656 ft 164 kts 125°
2026-05-05 09:17 -26.63733 148.92441 5929 ft 164 kts 125°
2026-05-05 09:17 -26.64374 148.93483 6205 ft 164 kts 126°
2026-05-05 09:18 -26.65023 148.94539 6487 ft 165 kts 126°
2026-05-05 09:18 -26.65674 148.95597 6753 ft 165 kts 126°
2026-05-05 09:18 -26.66326 148.96660 7015 ft 167 kts 126°
2026-05-05 09:18 -26.66984 148.97730 7286 ft 167 kts 126°
2026-05-05 09:19 -26.67654 148.98821 7557 ft 168 kts 126°
2026-05-05 09:19 -26.68310 148.99890 7824 ft 169 kts 127°
2026-05-05 09:19 -26.68978 149.00978 8094 ft 170 kts 128°
2026-05-05 09:19 -26.69648 149.02069 8369 ft 171 kts 127°
2026-05-05 09:20 -26.70322 149.03168 8642 ft 172 kts 128°
2026-05-05 09:20 -26.71009 149.04287 8925 ft 174 kts 128°
2026-05-05 09:20 -26.71696 149.05408 9189 ft 175 kts 128°
2026-05-05 09:20 -26.72388 149.06538 9465 ft 177 kts 128°
2026-05-05 09:21 -26.73085 149.07675 9749 ft 178 kts 128°
2026-05-05 09:21 -26.73786 149.08818 10037 ft 179 kts 128°
2026-05-05 09:21 -26.74490 149.09967 10300 ft 179 kts 128°
2026-05-05 09:21 -26.75196 149.11121 10563 ft 180 kts 128°
2026-05-05 09:22 -26.75906 149.12280 10832 ft 181 kts 127°
2026-05-05 09:22 -26.76616 149.13443 11099 ft 181 kts 127°
2026-05-05 09:22 -26.77326 149.14605 11364 ft 181 kts 127°
2026-05-05 09:22 -26.78041 149.15766 11626 ft 181 kts 126°
2026-05-05 09:23 -26.78752 149.16930 11888 ft 182 kts 126°
2026-05-05 09:23 -26.79467 149.18099 12158 ft 182 kts 126°
2026-05-05 09:23 -26.80182 149.19270 12422 ft 183 kts 125°
2026-05-05 09:23 -26.80900 149.20444 12694 ft 183 kts 125°
2026-05-05 09:24 -26.81620 149.21623 12956 ft 185 kts 125°
2026-05-05 09:24 -26.82349 149.22814 13219 ft 186 kts 124°
2026-05-05 09:24 -26.83081 149.24012 13496 ft 186 kts 123°
2026-05-05 09:24 -26.83814 149.25213 13779 ft 187 kts 123°
2026-05-05 09:25 -26.84548 149.26415 14042 ft 187 kts 123°
2026-05-05 09:25 -26.85284 149.27621 14284 ft 188 kts 123°
2026-05-05 09:25 -26.86022 149.28830 14530 ft 188 kts 123°
2026-05-05 09:25 -26.86762 149.30044 14771 ft 189 kts 123°
2026-05-05 09:26 -26.87508 149.31268 14990 ft 193 kts 123°
2026-05-05 09:26 -26.88291 149.32553 15008 ft 206 kts 123°
2026-05-05 09:26 -26.89124 149.33920 15014 ft 218 kts 123°
2026-05-05 09:26 -26.89997 149.35351 15014 ft 227 kts 123°
2026-05-05 09:27 -26.90903 149.36837 15013 ft 234 kts 123°
2026-05-05 09:27 -26.91828 149.38357 15009 ft 238 kts 123°
2026-05-05 09:27 -26.92776 149.39914 15009 ft 243 kts 123°
2026-05-05 09:27 -26.93731 149.41484 15005 ft 245 kts 123°
2026-05-05 09:28 -26.94690 149.43062 15007 ft 245 kts 123°
2026-05-05 09:28 -26.95653 149.44647 15006 ft 246 kts 123°
2026-05-05 09:28 -26.96618 149.46232 15005 ft 246 kts 123°
2026-05-05 09:28 -26.97581 149.47819 15007 ft 247 kts 123°
2026-05-05 09:29 -26.98548 149.49410 15009 ft 247 kts 123°
2026-05-05 09:29 -26.99515 149.51003 15010 ft 247 kts 123°
2026-05-05 09:29 -27.00480 149.52593 15010 ft 247 kts 123°
2026-05-05 09:29 -27.01445 149.54184 15009 ft 247 kts 123°
2026-05-05 09:30 -27.02411 149.55778 15008 ft 247 kts 123°
2026-05-05 09:30 -27.03376 149.57370 15008 ft 247 kts 123°
2026-05-05 09:30 -27.04340 149.58960 15007 ft 246 kts 123°
2026-05-05 09:30 -27.05304 149.60550 15000 ft 246 kts 123°
2026-05-05 09:31 -27.06261 149.62133 14999 ft 245 kts 123°
2026-05-05 09:31 -27.07219 149.63714 14996 ft 244 kts 123°
2026-05-05 09:31 -27.08170 149.65286 14994 ft 243 kts 123°
2026-05-05 09:31 -27.09119 149.66855 14992 ft 242 kts 123°
2026-05-05 09:32 -27.10062 149.68416 14990 ft 241 kts 123°
2026-05-05 09:32 -27.10999 149.69966 14987 ft 239 kts 123°
2026-05-05 09:32 -27.11931 149.71507 14988 ft 239 kts 123°
2026-05-05 09:32 -27.12860 149.73047 14989 ft 238 kts 123°
2026-05-05 09:33 -27.13791 149.74587 14985 ft 238 kts 123°
2026-05-05 09:33 -27.14719 149.76125 14985 ft 238 kts 123°
2026-05-05 09:33 -27.15648 149.77665 14986 ft 238 kts 123°
2026-05-05 09:33 -27.16579 149.79208 14987 ft 239 kts 123°
2026-05-05 09:34 -27.17510 149.80752 14990 ft 239 kts 123°
2026-05-05 09:34 -27.18442 149.82298 14991 ft 239 kts 123°
2026-05-05 09:34 -27.19374 149.83844 14990 ft 239 kts 123°
2026-05-05 09:34 -27.20303 149.85388 14990 ft 238 kts 123°
2026-05-05 09:35 -27.21233 149.86931 14992 ft 238 kts 123°
2026-05-05 09:35 -27.22786 149.89503 14990 ft 237 kts 123°
2026-05-05 09:35 -27.24006 149.91537 14992 ft 237 kts 123°
2026-05-05 09:36 -27.24938 149.93092 14992 ft 237 kts 123°
2026-05-05 09:36 -27.25549 149.94107 14992 ft 237 kts 123°
2026-05-05 09:36 -27.26475 149.95646 14993 ft 237 kts 123°
2026-05-05 09:36 -27.27397 149.97182 14995 ft 237 kts 123°
2026-05-05 09:37 -27.28321 149.98719 14997 ft 237 kts 123°
2026-05-05 09:37 -27.29242 150.00253 14999 ft 237 kts 122°
2026-05-05 09:37 -27.30165 150.01790 15000 ft 237 kts 122°
2026-05-05 09:37 -27.31086 150.03328 15002 ft 237 kts 123°
2026-05-05 09:38 -27.32008 150.04864 15002 ft 237 kts 123°
2026-05-05 09:38 -27.32927 150.06397 15001 ft 236 kts 122°
2026-05-05 09:38 -27.33847 150.07931 14999 ft 237 kts 122°
2026-05-05 09:38 -27.34766 150.09466 14998 ft 237 kts 122°
2026-05-05 09:39 -27.35686 150.11000 14994 ft 236 kts 122°
2026-05-05 09:39 -27.36602 150.12533 14992 ft 236 kts 122°
2026-05-05 09:39 -27.37521 150.14067 14991 ft 237 kts 122°
2026-05-05 09:39 -27.38442 150.15608 14992 ft 238 kts 122°
2026-05-05 09:40 -27.39369 150.17156 14995 ft 239 kts 122°
2026-05-05 09:40 -27.40297 150.18712 14991 ft 240 kts 123°
2026-05-05 09:40 -27.41230 150.20270 14991 ft 240 kts 123°
2026-05-05 09:40 -27.42163 150.21832 14991 ft 241 kts 123°
2026-05-05 09:41 -27.43097 150.23396 14989 ft 241 kts 123°
2026-05-05 09:41 -27.44033 150.24962 14989 ft 241 kts 123°
2026-05-05 09:41 -27.44967 150.26529 14990 ft 241 kts 123°
2026-05-05 09:41 -27.45902 150.28097 14990 ft 241 kts 123°
2026-05-05 09:42 -27.46836 150.29663 14989 ft 241 kts 123°
2026-05-05 09:42 -27.47772 150.31231 14988 ft 241 kts 123°
2026-05-05 09:42 -27.48706 150.32800 14989 ft 241 kts 123°
2026-05-05 09:42 -27.49686 150.34333 14989 ft 241 kts 125°
2026-05-05 09:43 -27.50647 150.35910 14989 ft 241 kts 123°
2026-05-05 09:43 -27.51582 150.37472 14988 ft 241 kts 123°
2026-05-05 09:43 -27.52537 150.39019 14988 ft 240 kts 124°
2026-05-05 09:43 -27.53497 150.40563 14985 ft 240 kts 124°
2026-05-05 09:44 -27.54451 150.42104 14987 ft 240 kts 124°
2026-05-05 09:44 -27.55406 150.43652 14993 ft 240 kts 124°
2026-05-05 09:44 -27.56358 150.45193 14997 ft 240 kts 124°
2026-05-05 09:44 -27.57312 150.46734 14991 ft 239 kts 124°
2026-05-05 09:45 -27.58263 150.48274 14992 ft 239 kts 124°
2026-05-05 09:45 -27.59209 150.49813 14990 ft 239 kts 124°
2026-05-05 09:45 -27.60155 150.51349 14992 ft 239 kts 124°
2026-05-05 09:45 -27.61103 150.52883 14988 ft 239 kts 124°
2026-05-05 09:46 -27.62052 150.54424 14991 ft 239 kts 124°
2026-05-05 09:46 -27.62999 150.55961 14991 ft 239 kts 124°
2026-05-05 09:46 -27.63947 150.57500 14990 ft 239 kts 124°
2026-05-05 09:46 -27.64895 150.59038 15002 ft 239 kts 124°
2026-05-05 09:47 -27.65842 150.60578 15005 ft 239 kts 124°
2026-05-05 09:47 -27.66792 150.62121 15007 ft 239 kts 124°
2026-05-05 09:47 -27.67743 150.63668 15004 ft 240 kts 124°
2026-05-05 09:47 -27.68692 150.65211 15005 ft 239 kts 124°
2026-05-05 09:48 -27.69640 150.66754 15002 ft 239 kts 124°
2026-05-05 09:48 -27.70584 150.68291 15001 ft 238 kts 124°
2026-05-05 09:48 -27.71527 150.69826 14999 ft 238 kts 124°
2026-05-05 09:48 -27.72468 150.71358 14996 ft 237 kts 124°
2026-05-05 09:49 -27.73404 150.72885 14999 ft 236 kts 124°
2026-05-05 09:49 -27.74338 150.74407 14997 ft 235 kts 124°
2026-05-05 09:49 -27.75270 150.75923 14986 ft 235 kts 124°
2026-05-05 09:49 -27.76199 150.77440 14985 ft 235 kts 123°
2026-05-05 09:50 -27.77128 150.78959 14987 ft 235 kts 124°
2026-05-05 09:50 -27.78056 150.80473 14988 ft 234 kts 124°
2026-05-05 09:50 -27.78982 150.81986 14989 ft 234 kts 124°
2026-05-05 09:50 -27.79907 150.83496 14987 ft 233 kts 123°
2026-05-05 09:51 -27.80828 150.85002 14991 ft 233 kts 123°
2026-05-05 09:51 -27.81747 150.86504 14987 ft 232 kts 123°
2026-05-05 09:51 -27.82665 150.88004 14988 ft 232 kts 124°
2026-05-05 09:51 -27.83579 150.89500 14989 ft 231 kts 123°
2026-05-05 09:52 -27.84492 150.90993 14987 ft 231 kts 123°
2026-05-05 09:52 -27.85402 150.92483 14985 ft 230 kts 123°
2026-05-05 09:52 -27.86310 150.93971 14986 ft 230 kts 123°
2026-05-05 09:52 -27.87219 150.95458 14985 ft 230 kts 123°
2026-05-05 09:53 -27.88126 150.96945 14989 ft 230 kts 124°
2026-05-05 09:53 -27.89035 150.98435 14989 ft 230 kts 123°
2026-05-05 09:53 -27.89945 150.99925 14987 ft 231 kts 123°
2026-05-05 09:53 -27.90857 151.01423 14989 ft 231 kts 123°
2026-05-05 09:54 -27.91771 151.02922 14994 ft 232 kts 123°
2026-05-05 09:54 -27.92686 151.04423 14993 ft 232 kts 123°
2026-05-05 09:54 -27.93605 151.05931 14991 ft 233 kts 123°
2026-05-05 09:54 -27.94526 151.07444 14991 ft 234 kts 123°
2026-05-05 09:55 -27.95446 151.08958 14993 ft 234 kts 123°
2026-05-05 09:55 -27.96368 151.10473 14993 ft 234 kts 123°
2026-05-05 09:55 -27.97288 151.11985 14993 ft 233 kts 123°
2026-05-05 09:55 -27.98208 151.13499 14999 ft 233 kts 124°
2026-05-05 09:56 -27.99126 151.15009 14997 ft 232 kts 124°
2026-05-05 09:56 -28.00039 151.16513 14995 ft 232 kts 124°
2026-05-05 09:56 -28.00963 151.18033 14994 ft 231 kts 124°
2026-05-05 09:56 -28.01872 151.19532 14994 ft 231 kts 124°
2026-05-05 09:57 -28.02783 151.21029 14993 ft 231 kts 124°
2026-05-05 09:57 -28.03691 151.22527 14987 ft 231 kts 124°
2026-05-05 09:57 -28.04597 151.24022 14985 ft 230 kts 124°
2026-05-05 09:57 -28.05502 151.25515 14984 ft 230 kts 124°
2026-05-05 09:58 -28.06406 151.27006 14985 ft 229 kts 124°
2026-05-05 09:58 -28.07307 151.28493 14986 ft 229 kts 124°
2026-05-05 09:58 -28.08207 151.29979 14985 ft 228 kts 124°
2026-05-05 09:58 -28.09103 151.31459 14985 ft 228 kts 124°
2026-05-05 09:59 -28.09997 151.32935 14985 ft 227 kts 124°
2026-05-05 09:59 -28.10891 151.34406 14985 ft 226 kts 124°
2026-05-05 09:59 -28.11780 151.35877 14984 ft 226 kts 123°
2026-05-05 09:59 -28.12665 151.37347 14982 ft 226 kts 124°
2026-05-05 10:00 -28.13553 151.38816 14987 ft 226 kts 124°
2026-05-05 10:00 -28.14440 151.40285 14986 ft 226 kts 124°
2026-05-05 10:00 -28.15329 151.41756 14986 ft 226 kts 124°
2026-05-05 10:00 -28.16215 151.43224 14986 ft 226 kts 124°
2026-05-05 10:01 -28.17101 151.44691 14987 ft 226 kts 124°
2026-05-05 10:01 -28.17987 151.46159 14986 ft 225 kts 124°
2026-05-05 10:01 -28.18870 151.47624 14985 ft 225 kts 124°
2026-05-05 10:01 -28.19754 151.49090 14983 ft 225 kts 124°
2026-05-05 10:02 -28.20636 151.50553 14983 ft 225 kts 124°
2026-05-05 10:02 -28.21518 151.52016 14984 ft 225 kts 124°
2026-05-05 10:02 -28.22398 151.53477 14984 ft 225 kts 124°
2026-05-05 10:02 -28.23279 151.54940 14990 ft 225 kts 124°
2026-05-05 10:03 -28.24162 151.56408 15003 ft 225 kts 124°
2026-05-05 10:03 -28.25053 151.57887 15009 ft 229 kts 124°
2026-05-05 10:03 -28.25961 151.59396 15009 ft 234 kts 124°
2026-05-05 10:03 -28.26883 151.60929 15006 ft 237 kts 124°
2026-05-05 10:04 -28.27816 151.62481 15005 ft 239 kts 124°
2026-05-05 10:04 -28.28758 151.64041 15005 ft 241 kts 123°
2026-05-05 10:04 -28.29703 151.65617 15008 ft 243 kts 123°
2026-05-05 10:04 -28.30654 151.67207 15009 ft 244 kts 123°
2026-05-05 10:05 -28.31611 151.68802 15010 ft 245 kts 123°
2026-05-05 10:05 -28.32573 151.70404 15013 ft 246 kts 123°
2026-05-05 10:05 -28.33536 151.72008 15011 ft 246 kts 123°
2026-05-05 10:05 -28.34500 151.73617 15012 ft 247 kts 123°
2026-05-05 10:06 -28.35479 151.75250 15009 ft 247 kts 123°
2026-05-05 10:06 -28.36445 151.76863 15008 ft 247 kts 123°
2026-05-05 10:06 -28.37412 151.78477 15007 ft 248 kts 123°
2026-05-05 10:06 -28.38382 151.80096 15008 ft 248 kts 123°
2026-05-05 10:07 -28.39349 151.81713 15008 ft 248 kts 123°
2026-05-05 10:07 -28.40321 151.83332 15017 ft 248 kts 124°
2026-05-05 10:07 -28.41289 151.84952 15019 ft 248 kts 124°
2026-05-05 10:07 -28.41927 151.86023 15018 ft 247 kts 124°
2026-05-05 10:08 -28.42891 151.87639 15015 ft 247 kts 124°
2026-05-05 10:08 -28.43856 151.89254 15014 ft 247 kts 124°
2026-05-05 10:08 -28.44819 151.90865 15014 ft 246 kts 124°
2026-05-05 10:08 -28.45780 151.92476 15015 ft 246 kts 124°
2026-05-05 10:09 -28.46744 151.94089 15008 ft 247 kts 123°
2026-05-05 10:09 -28.47706 151.95705 15006 ft 247 kts 123°
2026-05-05 10:09 -28.48671 151.97323 15006 ft 247 kts 123°
2026-05-05 10:09 -28.49635 151.98942 15007 ft 247 kts 123°
2026-05-05 10:10 -28.50600 152.00561 15011 ft 247 kts 123°
2026-05-05 10:10 -28.51566 152.02183 15012 ft 248 kts 123°
2026-05-05 10:10 -28.52533 152.03806 15012 ft 248 kts 123°
2026-05-05 10:10 -28.53499 152.05430 15012 ft 248 kts 123°
2026-05-05 10:11 -28.54463 152.07051 15012 ft 248 kts 123°
2026-05-05 10:11 -28.55429 152.08675 15012 ft 248 kts 123°
2026-05-05 10:11 -28.56394 152.10299 15012 ft 248 kts 123°
2026-05-05 10:11 -28.57359 152.11923 15019 ft 248 kts 123°
2026-05-05 10:12 -28.58326 152.13552 15019 ft 248 kts 123°
2026-05-05 10:12 -28.59293 152.15179 15018 ft 248 kts 123°
2026-05-05 10:12 -28.60260 152.16807 15016 ft 248 kts 123°
2026-05-05 10:12 -28.61225 152.18436 15017 ft 248 kts 123°
2026-05-05 10:13 -28.62190 152.20064 15020 ft 248 kts 123°
2026-05-05 10:13 -28.63156 152.21692 15021 ft 248 kts 123°
2026-05-05 10:13 -28.64121 152.23320 15019 ft 248 kts 123°
2026-05-05 10:13 -28.65086 152.24950 15019 ft 248 kts 123°
2026-05-05 10:14 -28.66049 152.26578 15020 ft 248 kts 122°
2026-05-05 10:14 -28.67016 152.28211 15019 ft 249 kts 123°
2026-05-05 10:14 -28.67983 152.29844 15019 ft 249 kts 123°
2026-05-05 10:14 -28.68951 152.31482 15019 ft 249 kts 123°
2026-05-05 10:15 -28.69919 152.33118 15018 ft 249 kts 123°
2026-05-05 10:15 -28.70884 152.34754 15019 ft 249 kts 122°
2026-05-05 10:15 -28.71852 152.36390 15019 ft 249 kts 122°
2026-05-05 10:15 -28.72818 152.38029 15023 ft 249 kts 122°
2026-05-05 10:16 -28.73798 152.39696 15017 ft 250 kts 123°
2026-05-05 10:16 -28.74772 152.41334 15011 ft 250 kts 123°
2026-05-05 10:16 -28.75741 152.42976 15009 ft 249 kts 122°
2026-05-05 10:16 -28.76704 152.44614 15009 ft 249 kts 122°
2026-05-05 10:17 -28.77667 152.46248 15013 ft 248 kts 122°
2026-05-05 10:17 -28.78631 152.47884 15013 ft 249 kts 122°
2026-05-05 10:17 -28.79595 152.49521 15013 ft 249 kts 122°
2026-05-05 10:17 -28.80559 152.51160 15013 ft 249 kts 122°
2026-05-05 10:18 -28.81522 152.52798 15010 ft 248 kts 123°
2026-05-05 10:18 -28.82481 152.54431 15011 ft 248 kts 123°
2026-05-05 10:18 -28.83442 152.56060 15010 ft 247 kts 123°
2026-05-05 10:18 -28.84425 152.57669 15009 ft 247 kts 130°
2026-05-05 10:19 -28.85765 152.58876 15009 ft 247 kts 155°
2026-05-05 10:19 -28.87383 152.59499 15010 ft 245 kts 167°
2026-05-05 10:19 -28.89034 152.59998 15010 ft 245 kts 166°
2026-05-05 10:19 -28.90666 152.60562 15011 ft 246 kts 163°
2026-05-05 10:20 -28.92295 152.61159 15012 ft 245 kts 164°
2026-05-05 10:20 -28.93922 152.61744 15009 ft 245 kts 164°
2026-05-05 10:20 -28.95553 152.62321 15010 ft 245 kts 164°
2026-05-05 10:20 -28.97183 152.62899 15010 ft 245 kts 164°
2026-05-05 10:21 -28.98812 152.63481 15009 ft 245 kts 164°
2026-05-05 10:21 -29.00442 152.64063 15012 ft 246 kts 164°
2026-05-05 10:21 -29.02073 152.64644 15006 ft 246 kts 164°
2026-05-05 10:21 -29.03703 152.65225 15007 ft 245 kts 164°
2026-05-05 10:22 -29.05333 152.65807 15007 ft 245 kts 164°
2026-05-05 10:22 -29.06964 152.66389 15007 ft 245 kts 164°
2026-05-05 10:22 -29.08594 152.66971 15007 ft 245 kts 164°
2026-05-05 10:22 -29.10224 152.67554 15007 ft 246 kts 164°
2026-05-05 10:23 -29.11854 152.68138 15006 ft 246 kts 165°
2026-05-05 10:23 -29.13484 152.68719 15009 ft 245 kts 165°
2026-05-05 10:23 -29.15092 152.69377 15009 ft 246 kts 158°
2026-05-05 10:23 -29.16624 152.70263 15008 ft 247 kts 154°
2026-05-05 10:24 -29.18145 152.71173 15013 ft 247 kts 155°
2026-05-05 10:24 -29.19687 152.72036 15011 ft 246 kts 156°
2026-05-05 10:24 -29.21238 152.72869 15008 ft 246 kts 157°
2026-05-05 10:24 -29.22777 152.73735 15008 ft 246 kts 155°
2026-05-05 10:25 -29.24308 152.74614 14991 ft 247 kts 155°
2026-05-05 10:25 -29.25899 152.75494 14814 ft 254 kts 156°
2026-05-05 10:25 -29.27513 152.76394 14563 ft 262 kts 155°
2026-05-05 10:25 -29.29155 152.77328 14371 ft 264 kts 155°
2026-05-05 10:26 -29.30809 152.78261 14193 ft 265 kts 155°
2026-05-05 10:26 -29.32471 152.79192 14015 ft 266 kts 155°
2026-05-05 10:26 -29.34131 152.80123 13827 ft 266 kts 155°
2026-05-05 10:26 -29.35784 152.81052 13626 ft 263 kts 155°
2026-05-05 10:27 -29.37419 152.81972 13420 ft 260 kts 155°
2026-05-05 10:27 -29.39037 152.82881 13224 ft 258 kts 155°
2026-05-05 10:27 -29.40648 152.83777 13026 ft 257 kts 156°
2026-05-05 10:27 -29.42243 152.84682 12830 ft 255 kts 156°
2026-05-05 10:28 -29.43826 152.85579 12636 ft 253 kts 156°
2026-05-05 10:28 -29.45406 152.86467 12368 ft 254 kts 156°
2026-05-05 10:28 -29.46991 152.87355 12130 ft 253 kts 156°
2026-05-05 10:28 -29.48560 152.88243 11899 ft 250 kts 156°
2026-05-05 10:29 -29.50112 152.89119 11666 ft 247 kts 156°
2026-05-05 10:29 -29.51649 152.89986 11440 ft 245 kts 156°
2026-05-05 10:29 -29.53173 152.90845 11214 ft 243 kts 156°
2026-05-05 10:29 -29.54685 152.91699 10991 ft 241 kts 156°
2026-05-05 10:30 -29.56189 152.92547 10774 ft 240 kts 156°
2026-05-05 10:30 -29.57681 152.93390 10558 ft 238 kts 156°
2026-05-05 10:30 -29.59165 152.94228 10339 ft 237 kts 156°
2026-05-05 10:30 -29.60639 152.95061 10122 ft 235 kts 156°
2026-05-05 10:31 -29.62106 152.95890 9885 ft 234 kts 156°
2026-05-05 10:31 -29.63563 152.96713 9646 ft 233 kts 156°
2026-05-05 10:31 -29.65010 152.97532 9407 ft 231 kts 156°
2026-05-05 10:31 -29.66449 152.98346 9170 ft 229 kts 156°
2026-05-05 10:32 -29.67872 152.99151 8935 ft 227 kts 156°
2026-05-05 10:32 -29.69287 152.99952 8700 ft 226 kts 155°
2026-05-05 10:32 -29.70696 153.00749 8472 ft 226 kts 155°
2026-05-05 10:32 -29.72103 153.01547 8238 ft 225 kts 155°
2026-05-05 10:33 -29.73508 153.02343 8010 ft 225 kts 155°
2026-05-05 10:33 -29.74908 153.03137 7786 ft 224 kts 155°
2026-05-05 10:33 -29.76302 153.03927 7563 ft 223 kts 155°
2026-05-05 10:33 -29.77693 153.04716 7345 ft 222 kts 154°
2026-05-05 10:34 -29.79079 153.05503 7128 ft 222 kts 154°
2026-05-05 10:34 -29.80460 153.06286 6910 ft 221 kts 154°
2026-05-05 10:34 -29.81836 153.07067 6697 ft 220 kts 154°
2026-05-05 10:34 -29.83208 153.07846 6483 ft 219 kts 154°
2026-05-05 10:35 -29.84575 153.08623 6261 ft 219 kts 154°
2026-05-05 10:35 -29.85945 153.09400 6043 ft 220 kts 154°
2026-05-05 10:35 -29.87324 153.10183 5827 ft 221 kts 154°
2026-05-05 10:35 -29.88707 153.10970 5613 ft 222 kts 154°
2026-05-05 10:36 -29.90082 153.11752 5509 ft 217 kts 154°
2026-05-05 10:36 -29.91421 153.12514 5505 ft 213 kts 154°
2026-05-05 10:36 -29.92752 153.13283 5486 ft 210 kts 154°
2026-05-05 10:36 -29.94030 153.14020 5497 ft 207 kts 155°
2026-05-05 10:37 -29.95340 153.14744 5496 ft 205 kts 155°
2026-05-05 10:37 -29.96621 153.15471 5494 ft 205 kts 154°
2026-05-05 10:37 -29.97890 153.16196 5495 ft 203 kts 155°
2026-05-05 10:37 -29.99156 153.16919 5493 ft 203 kts 154°
2026-05-05 10:38 -30.00423 153.17642 5492 ft 204 kts 154°
2026-05-05 10:38 -30.01693 153.18366 5496 ft 204 kts 154°
2026-05-05 10:38 -30.02965 153.19091 5497 ft 203 kts 154°
2026-05-05 10:38 -30.04234 153.19815 5497 ft 203 kts 154°
2026-05-05 10:39 -30.05501 153.20539 5503 ft 202 kts 154°
2026-05-05 10:39 -30.06746 153.21253 5498 ft 198 kts 154°
2026-05-05 10:39 -30.07970 153.21953 5499 ft 195 kts 154°
2026-05-05 10:39 -30.09179 153.22643 5499 ft 193 kts 154°
2026-05-05 10:40 -30.10351 153.23388 5499 ft 192 kts 150°
2026-05-05 10:40 -30.11540 153.24140 5305 ft 200 kts 152°
2026-05-05 10:40 -30.12793 153.24911 5055 ft 207 kts 151°
2026-05-05 10:40 -30.14062 153.25718 4799 ft 209 kts 151°
2026-05-05 10:41 -30.14904 153.26257 4630 ft 209 kts 151°
2026-05-05 10:41 -30.16736 153.26918 4275 ft 208 kts 180°
2026-05-05 10:41 -30.17670 153.26715 4143 ft 207 kts 201°
2026-05-05 10:41 -30.19120 153.25353 3935 ft 196 kts 217°
2026-05-05 10:42 -30.20183 153.23197 3799 ft 185 kts 246°
2026-05-05 10:42 -30.20870 153.22012 3800 ft 173 kts 221°
2026-05-05 10:42 -30.21818 153.21135 3548 ft 178 kts 209°
2026-05-05 10:43 -30.22943 153.20571 3364 ft 176 kts 197°
2026-05-05 10:43 -30.24068 153.20136 2967 ft 164 kts 197°
2026-05-05 10:43 -30.25097 153.19670 2716 ft 154 kts 192°
2026-05-05 10:43 -30.26105 153.19330 2444 ft 151 kts 198°
2026-05-05 10:44 -30.26998 153.18729 2315 ft 146 kts 218°
2026-05-05 10:44 -30.27557 153.17708 2098 ft 157 kts 246°
2026-05-05 10:44 -30.27887 153.16492 1772 ft 160 kts 244°
2026-05-05 10:44 -30.28486 153.15529 1550 ft 139 kts 212°
2026-05-05 10:45 -30.29308 153.14965 1252 ft 134 kts 207°
2026-05-05 10:45 -30.29999 153.14420 1064 ft 111 kts 213°
2026-05-05 10:45 -30.30577 153.13875 808 ft 99 kts 218°
2026-05-05 10:45 -30.31104 153.13362 555 ft 102 kts 217°
2026-05-05 10:46 -30.31644 153.12844 376 ft 100 kts 221°
2026-05-05 10:46 -30.32167 153.12313 155 ft 98 kts 221°
2026-05-05 10:46 -30.32657 153.11824 21 ft 82 kts 222°
2026-05-05 10:46 -30.33003 153.11481 14 ft 51 kts 220°
2026-05-05 10:47 -30.33133 153.11323 16 ft 9 kts 288°
2026-05-05 10:47 -30.33099 153.11276 16 ft 8 kts 310°
2026-05-05 10:47 -30.33056 153.11225 15 ft 10 kts 330°
2026-05-05 10:47 -30.32989 153.11254 16 ft 12 kts 41°
2026-05-05 10:48 -30.32920 153.11322 16 ft 14 kts 41°
2026-05-05 10:48 -30.32843 153.11397 16 ft 15 kts 39°
2026-05-05 10:48 -30.32761 153.11480 16 ft 17 kts 41°
2026-05-05 10:48 -30.32669 153.11571 16 ft 18 kts 39°
2026-05-05 10:49 -30.32567 153.11668 17 ft 20 kts 44°
2026-05-05 10:49 -30.32468 153.11766 17 ft 16 kts 30°
2026-05-05 10:49 -30.32398 153.11732 17 ft 10 kts 309°
2026-05-05 10:49 -30.32355 153.11679 17 ft 10 kts 337°
2026-05-05 10:50 -30.32289 153.11725 17 ft 13 kts 44°
2026-05-05 10:50 -30.32219 153.11747 16 ft 10 kts 327°
2026-05-05 10:50 -30.32216 153.11734 16 ft 0 kts 177°